Wind_Speed
14 15 15 15 15 16 17 16 17 17 18 18 18 18 18 18 18 18 18 18 19 19 19 19 20 20 20 20 20 20 20 21 20 20 21 21 20 21
16 16 16 16 17 18 18 18 19 19 20 20 20 20 20 20 20 20 21 20 20 20 20 20 21 21 21 21 22 22 22 22 22 22 22 22 22 22
17 17 18 18 18 19 20 20 20 21 21 21 22 22 22 22 22 22 22 23 23 22 22 22 22 23 23 23 23 23 23 23 23 23 23 23 23 23
18 19 19 20 20 21 21 22 22 22 23 23 23 24 24 24 24 24 24 24 24 24 24 25 25 25 25 24 24 24 24 24 24 24 24 24 24 24
21 21 21 22 22 22 23 24 24 24 24 24 25 26 26 26 26 26 25 26 26 27 27 27 26 26 26 26 26 26 26 26 25 25 26 26 26 26
23 23 24 24 24 24 25 26 26 26 26 26 27 27 27 28 28 28 28 27 27 28 28 27 27 27 27 27 27 27 27 27 28 28 28 28 27 27
25 25 25 26 26 27 28 28 28 28 28 28 28 28 28 29 29 29 30 29 29 29 29 29 29 29 29 29 28 28 28 29 29 29 29 29 29 28
26 27 27 27 28 28 29 29 30 31 30 29 29 29 29 29 30 30 30 29 29 30 30 29 29 29 29 29 29 30 30 30 30 30 30 30 30 30
29 29 29 29 29 29 30 30 29 29 30 30 30 30 30 31 31 31 31 30 30 30 30 30 30 30 29 29 30 30 31 32 32 32 32 31 31 30
30 30 30 30 30 30 31 30 30 30 30 31 31 31 32 31 32 32 32 31 31 31 31 31 31 31 30 31 31 32 32 33 33 32 32 31 31 31
32 32 32 32 32 32 32 33 32 32 32 33 33 32 32 33 32 32 32 32 32 32 31 31 31 33 33 33 33 33 34 34 34 33 33 32 32 31
34 34 34 34 34 34 34 34 34 34 34 34 34 34 35 34 33 34 33 33 33 33 33 32 32 33 32 32 33 33 34 35 34 34 33 33 33 33
36 36 36 35 35 36 36 35 35 36 36 35 35 35 35 35 34 34 34 33 33 33 33 33 33 33 33 32 33 34 34 34 34 34 33 33 33 33
38 38 37 37 37 36 36 36 36 36 36 36 35 35 36 36 35 34 34 33 33 34 33 34 34 34 34 33 33 34 34 34 34 33 33 33 34 34
38 37 37 37 36 36 36 35 35 36 36 36 36 35 36 36 36 35 35 34 34 34 34 34 34 35 35 34 34 34 34 34 34 33 33 33 33 33
39 38 38 38 37 36 37 37 37 36 36 36 36 36 36 36 36 35 35 34 34 34 34 34 34 35 35 35 35 35 35 34 33 33 32 32 32 33
39 38 38 39 38 38 37 37 37 37 37 37 36 36 36 36 36 36 35 35 35 35 35 34 35 35 35 35 35 35 35 34 33 33 32 31 31 32
39 39 38 38 38 37 37 37 36 36 36 36 36 36 36 35 35 35 35 35 35 35 34 34 34 34 35 34 33 33 33 33 33 33 32 31 31 32
39 38 38 37 37 36 36 36 36 36 36 36 35 35 35 34 34 34 34 34 34 34 35 35 35 34 34 32 32 32 32 31 32 31 31 31 31 31
38 37 37 37 37 37 38 37 37 36 35 35 34 35 34 34 34 33 33 33 33 33 33 34 33 33 33 33 32 31 31 31 31 30 30 30 30 30
37 36 37 38 38 38 38 37 36 35 34 34 34 34 33 33 33 33 33 32 33 33 32 32 32 32 32 33 32 31 30 30 30 29 30 31 30 29
35 35 36 37 36 35 35 34 34 33 32 32 31 31 31 31 31 31 31 31 31 31 31 31 31 31 31 31 30 29 29 29 29 30 30 31 30 30
34 34 34 34 33 33 32 32 31 31 30 30 29 29 29 30 30 30 30 31 30 30 30 30 31 30 30 30 30 29 29 29 29 30 30 31 31 29
Wind_Direction
303 300 297 296 295 295 294 291 290 288 288 288 289 288 289 290 288 284 284 283 283 283 284 285 284 284 284 284 281 281 282 281 282 283 284 286 287 286
303 301 298 296 296 297 295 291 291 289 289 288 288 287 286 288 289 286 283 283 284 284 284 285 286 284 284 283 281 280 281 282 282 281 282 283 284 286
303 299 296 294 294 294 294 291 290 290 289 288 287 287 286 286 287 288 285 284 283 282 282 284 284 284 285 285 283 280 280 280 280 279 280 282 283 284
302 299 297 295 293 292 293 291 290 289 288 288 287 287 286 285 285 284 283 284 284 282 282 282 283 283 284 284 282 281 280 280 281 280 281 281 282 282
300 299 298 296 295 294 292 290 289 288 287 287 287 287 286 285 284 282 282 283 283 282 281 282 283 284 285 284 281 280 280 279 280 281 282 281 281 281
298 297 296 295 295 295 293 291 289 288 287 286 286 286 285 286 286 283 282 282 282 283 283 281 282 282 282 282 281 279 280 280 279 281 282 281 282 280
298 297 296 295 294 295 294 292 290 289 287 286 285 284 285 287 287 285 283 283 284 283 283 282 282 282 282 283 281 279 279 279 279 279 280 281 281 280
299 297 297 296 296 295 295 293 291 290 287 286 286 286 285 286 286 286 285 285 285 283 282 282 282 281 281 282 280 279 279 278 279 281 280 280 281 280
299 298 298 298 297 296 295 294 294 293 290 288 288 287 285 285 285 285 285 284 284 283 283 282 280 280 279 278 279 279 279 279 279 279 279 277 277 277
299 299 297 298 298 297 296 295 294 293 291 290 289 288 286 284 284 284 283 281 282 283 282 281 281 280 280 279 279 279 278 278 278 277 276 275 276 276
298 298 297 296 296 296 295 294 293 292 291 290 289 288 287 285 282 282 281 280 281 281 281 281 280 280 280 279 278 278 277 277 278 277 276 276 275 275
295 296 295 295 294 293 293 293 292 292 291 289 287 286 286 285 282 281 280 280 281 280 280 280 280 280 281 280 279 279 280 278 277 277 276 275 275 275
294 294 293 293 293 292 292 292 292 291 292 290 289 287 286 285 283 281 280 279 279 280 279 279 280 281 281 281 280 280 280 280 279 278 276 275 275 275
293 293 293 293 292 292 292 292 292 292 291 291 290 289 287 285 283 281 280 279 279 278 279 280 280 281 281 282 282 282 281 281 279 277 277 275 274 272
293 293 293 293 293 292 292 291 291 292 292 291 290 289 288 287 284 282 280 279 278 277 279 280 280 281 281 282 282 282 281 281 280 277 275 274 273 271
292 292 292 293 293 292 292 291 291 292 292 291 290 288 287 285 283 283 283 280 279 279 279 279 279 280 281 281 281 281 280 280 279 278 275 272 271 270
292 291 291 292 292 292 291 291 291 291 291 291 289 288 287 285 284 283 282 281 279 278 278 278 278 279 280 281 281 280 279 280 279 279 275 271 270 270
292 291 291 291 291 291 291 290 290 291 291 291 289 287 286 285 284 283 281 280 279 279 279 278 279 279 280 280 281 280 280 281 280 279 276 272 270 270
291 290 290 290 290 291 291 290 290 291 291 290 289 288 286 285 284 284 284 282 280 280 280 279 279 278 279 280 279 279 279 280 279 277 277 275 273 272
291 290 289 290 290 290 291 290 290 290 291 290 289 288 286 285 284 284 283 282 280 280 280 278 278 277 277 278 278 278 278 278 278 277 276 276 275 273
291 290 289 289 290 290 291 291 291 291 291 290 289 288 286 284 283 283 284 283 282 280 279 278 277 276 277 278 277 276 276 276 276 276 276 277 278 276
291 291 290 290 290 290 290 291 292 292 291 290 289 289 287 283 283 284 285 285 284 281 279 279 278 277 277 277 276 275 275 274 275 276 276 276 277 276
291 290 290 291 291 291 291 292 293 292 290 290 290 288 287 287 286 287 286 286 285 283 281 279 279 279 278 277 275 274 273 274 275 275 275 275 274 274
Height
5864 5863 5862 5860 5858 5857 5855 5854 5853 5852 5850 5849 5847 5846 5844 5843 5842 5841 5840 5839 5837 5836 5835 5834 5833 5833 5832 5832 5831 5831 5830 5829 5829 5828 5827 5827 5826 5825
5861 5859 5858 5856 5855 5853 5851 5850 5848 5847 5845 5844 5843 5841 5840 5838 5837 5836 5835 5833 5832 5831 5830 5829 5828 5827 5827 5826 5825 5825 5824 5823 5823 5822 5822 5821 5820 5819
5857 5855 5853 5852 5850 5848 5846 5845 5843 5842 5840 5839 5837 5836 5834 5833 5831 5830 5829 5828 5826 5825 5824 5823 5822 5821 5821 5820 5819 5818 5818 5817 5816 5816 5815 5815 5814 5813
5853 5851 5849 5847 5845 5843 5841 5840 5838 5836 5834 5833 5831 5830 5828 5827 5825 5824 5822 5821 5820 5819 5818 5817 5816 5815 5814 5813 5812 5812 5811 5811 5810 5809 5809 5808 5807 5806
5848 5846 5844 5842 5839 5837 5836 5834 5832 5830 5828 5827 5825 5823 5821 5820 5818 5816 5815 5814 5813 5812 5811 5810 5809 5808 5807 5806 5805 5805 5804 5803 5803 5802 5801 5801 5800 5799
5843 5840 5838 5836 5834 5831 5829 5827 5825 5823 5822 5820 5818 5816 5814 5812 5811 5809 5807 5806 5805 5804 5803 5802 5801 5800 5799 5798 5797 5797 5796 5796 5795 5794 5794 5793 5792 5791
5837 5835 5832 5829 5827 5825 5823 5821 5819 5817 5814 5813 5811 5809 5807 5805 5803 5801 5799 5798 5797 5796 5795 5794 5793 5792 5791 5790 5789 5789 5788 5788 5787 5786 5786 5785 5784 5783
5831 5829 5826 5823 5821 5818 5816 5813 5811 5809 5807 5805 5803 5801 5799 5797 5795 5793 5792 5790 5789 5788 5786 5785 5784 5783 5782 5781 5781 5780 5780 5779 5778 5778 5777 5776 5775 5774
5825 5822 5819 5816 5813 5811 5808 5806 5803 5801 5799 5797 5795 5793 5790 5788 5787 5785 5783 5782 5780 5779 5777 5776 5775 5774 5773 5772 5772 5771 5770 5770 5769 5768 5767 5767 5766 5765
5817 5814 5812 5809 5806 5803 5800 5797 5795 5792 5790 5788 5786 5784 5782 5780 5778 5776 5774 5773 5771 5770 5768 5767 5766 5765 5764 5763 5763 5762 5761 5760 5759 5758 5757 5757 5757 5756
5809 5806 5803 5801 5798 5795 5792 5789 5787 5784 5781 5779 5776 5774 5772 5770 5768 5766 5765 5763 5762 5761 5759 5758 5757 5755 5755 5754 5753 5752 5751 5750 5749 5748 5748 5747 5747 5746
5801 5798 5795 5792 5789 5786 5783 5780 5777 5775 5772 5769 5767 5764 5762 5760 5758 5756 5755 5753 5752 5751 5750 5748 5747 5745 5745 5744 5743 5742 5740 5739 5739 5738 5737 5737 5736 5736
5791 5788 5785 5782 5779 5776 5773 5770 5767 5764 5762 5759 5756 5754 5752 5750 5748 5746 5744 5743 5742 5741 5739 5738 5737 5735 5735 5734 5733 5732 5730 5729 5728 5727 5727 5726 5726 5725
5781 5778 5775 5772 5769 5766 5763 5760 5757 5754 5751 5748 5746 5743 5741 5739 5737 5735 5734 5732 5731 5730 5729 5727 5726 5725 5724 5723 5723 5721 5720 5719 5718 5717 5716 5716 5715 5715
5770 5767 5764 5761 5758 5755 5752 5749 5746 5743 5740 5738 5735 5733 5730 5728 5726 5725 5723 5722 5721 5720 5718 5717 5716 5715 5714 5713 5712 5711 5709 5708 5707 5706 5705 5704 5704 5704
5759 5756 5753 5750 5747 5744 5741 5738 5735 5732 5730 5727 5724 5722 5720 5717 5715 5714 5712 5711 5710 5709 5708 5707 5706 5705 5703 5702 5701 5699 5698 5697 5696 5695 5694 5693 5693 5693
5748 5745 5742 5739 5736 5733 5729 5727 5724 5721 5719 5716 5713 5711 5708 5706 5704 5703 5701 5700 5699 5698 5697 5696 5695 5694 5692 5691 5689 5688 5687 5686 5684 5684 5683 5682 5682 5682
5736 5733 5730 5727 5724 5721 5718 5716 5713 5710 5707 5705 5702 5699 5697 5695 5693 5692 5690 5689 5688 5687 5686 5685 5684 5683 5681 5680 5679 5677 5676 5675 5674 5672 5672 5671 5671 5671
5724 5721 5719 5716 5713 5710 5707 5705 5702 5699 5696 5693 5691 5688 5686 5684 5683 5681 5680 5678 5677 5676 5675 5673 5672 5671 5670 5670 5669 5667 5666 5664 5663 5662 5661 5661 5661 5660
5713 5710 5708 5705 5703 5700 5697 5694 5691 5688 5686 5683 5680 5678 5676 5674 5672 5671 5669 5668 5667 5665 5664 5662 5661 5660 5659 5659 5658 5657 5656 5654 5653 5652 5652 5650 5650 5650
5702 5699 5697 5694 5692 5689 5686 5683 5680 5677 5675 5672 5669 5667 5665 5663 5661 5660 5659 5657 5656 5654 5653 5652 5651 5650 5648 5647 5647 5646 5646 5645 5644 5643 5642 5640 5640 5639
5691 5689 5686 5683 5680 5678 5675 5672 5669 5666 5664 5661 5659 5656 5654 5652 5651 5650 5648 5647 5645 5644 5643 5642 5641 5639 5638 5637 5636 5636 5635 5635 5634 5633 5632 5631 5629 5629
5681 5678 5675 5672 5669 5667 5664 5662 5659 5657 5654 5652 5649 5647 5645 5643 5642 5640 5639 5637 5635 5634 5633 5631 5630 5629 5628 5627 5626 5625 5625 5624 5623 5623 5622 5621 5620 5619